Time,TemperatureF,DewpointF,PressureIn,WindDirection,WindDirectionDegrees,WindSpeedMPH,WindSpeedGustMPH,Humidity,HourlyPrecipIn,Conditions,Clouds,dailyrainin,SolarRadiationWatts/m^2,SoftwareType,DateUTC
2013-02-28 00:03:00,50.6,47.0,30.41,WSW,252,0.0,3.0,87,0.00,,,0.00,0,weatherlink.com 1.10,2013-02-28 08:03:00,
2013-02-28 00:18:00,50.5,47.0,30.41,WSW,252,0.0,2.0,87,0.00,,,0.00,0,weatherlink.com 1.10,2013-02-28 08:18:00,
2013-02-28 00:33:00,50.6,47.0,30.41,WSW,252,0.0,1.0,87,0.00,,,0.00,0,weatherlink.com 1.10,2013-02-28 08:33:00,
2013-02-28 00:48:00,50.7,47.0,30.41,WSW,252,0.0,0.0,87,0.00,,,0.00,0,weatherlink.com 1.10,2013-02-28 08:48:00,
2013-02-28 01:03:00,50.4,47.0,30.41,WSW,252,0.0,0.0,87,0.00,,,0.00,0,weatherlink.com 1.10,2013-02-28 09:03:00,
2013-02-28 01:18:00,50.5,47.0,30.41,WSW,252,0.0,0.0,87,0.00,,,0.00,0,weatherlink.com 1.10,2013-02-28 09:18:00,
2013-02-28 01:33:00,50.2,47.0,30.42,WSW,252,0.0,2.0,88,0.00,,,0.00,0,weatherlink.com 1.10,2013-02-28 09:33:00,
2013-02-28 01:48:00,50.0,47.0,30.42,WSW,252,0.0,2.0,88,0.00,,,0.00,0,weatherlink.com 1.10,2013-02-28 09:48:00,
2013-02-28 02:03:00,50.0,47.0,30.42,WSW,252,0.0,1.0,88,0.00,,,0.00,0,weatherlink.com 1.10,2013-02-28 10:03:00,
2013-02-28 02:18:00,50.1,47.0,30.42,WSW,252,0.0,2.0,88,0.00,,,0.00,0,weatherlink.com 1.10,2013-02-28 10:18:00,
2013-02-28 02:33:00,50.2,47.0,30.41,WSW,252,0.0,0.0,87,0.00,,,0.00,0,weatherlink.com 1.10,2013-02-28 10:33:00,
2013-02-28 02:48:00,50.3,47.0,30.41,WSW,252,0.0,0.0,87,0.00,,,0.00,0,weatherlink.com 1.10,2013-02-28 10:48:00,
2013-02-28 03:03:00,50.5,47.0,30.41,WSW,252,0.0,0.0,87,0.00,,,0.00,0,weatherlink.com 1.10,2013-02-28 11:03:00,
2013-02-28 03:18:00,50.3,47.0,30.41,WNW,293,0.0,4.0,87,0.00,,,0.00,0,weatherlink.com 1.10,2013-02-28 11:18:00,
2013-02-28 03:33:00,50.0,47.0,30.41,WNW,289,0.0,3.0,88,0.00,,,0.00,0,weatherlink.com 1.10,2013-02-28 11:33:00,
2013-02-28 03:48:00,49.9,47.0,30.41,WNW,289,0.0,1.0,89,0.00,,,0.00,0,weatherlink.com 1.10,2013-02-28 11:48:00,
2013-02-28 04:03:00,49.6,47.0,30.41,ENE,68,0.0,2.0,89,0.00,,,0.00,0,weatherlink.com 1.10,2013-02-28 12:03:00,
2013-02-28 04:18:00,49.7,47.0,30.41,ENE,68,0.0,1.0,89,0.00,,,0.00,0,weatherlink.com 1.10,2013-02-28 12:18:00,
2013-02-28 04:33:00,49.7,47.0,30.41,ENE,68,0.0,0.0,89,0.00,,,0.00,0,weatherlink.com 1.10,2013-02-28 12:33:00,
2013-02-28 04:48:00,49.6,47.0,30.41,ENE,68,0.0,0.0,89,0.00,,,0.00,0,weatherlink.com 1.10,2013-02-28 12:48:00,
2013-02-28 05:03:00,49.6,47.0,30.42,ENE,68,0.0,2.0,90,0.00,,,0.00,0,weatherlink.com 1.10,2013-02-28 13:03:00,
2013-02-28 05:18:00,49.4,47.0,30.43,ENE,68,1.0,2.0,90,0.00,,,0.00,0,weatherlink.com 1.10,2013-02-28 13:18:00,
2013-02-28 05:33:00,49.2,47.0,30.43,SSE,155,0.0,2.0,90,0.00,,,0.00,0,weatherlink.com 1.10,2013-02-28 13:33:00,
2013-02-28 05:48:00,49.3,47.0,30.43,SSE,154,0.0,0.0,90,0.00,,,0.00,0,weatherlink.com 1.10,2013-02-28 13:48:00,
2013-02-28 06:03:00,49.6,47.0,30.45,SSE,154,0.0,0.0,91,0.00,,,0.00,0,weatherlink.com 1.10,2013-02-28 14:03:00,
2013-02-28 06:18:00,49.6,47.0,30.44,SSE,155,0.0,1.0,90,0.00,,,0.00,0,weatherlink.com 1.10,2013-02-28 14:18:00,
2013-02-28 06:33:00,50.1,47.0,30.44,SSE,155,0.0,0.0,90,0.00,,,0.00,0,weatherlink.com 1.10,2013-02-28 14:33:00,
2013-02-28 06:48:00,50.4,48.0,30.45,SSE,154,0.0,0.0,90,0.00,,,0.00,9,weatherlink.com 1.10,2013-02-28 14:48:00,
2013-02-28 07:03:00,50.7,48.0,30.45,SSE,154,0.0,0.0,90,0.00,,,0.00,33,weatherlink.com 1.10,2013-02-28 15:03:00,
2013-02-28 07:18:00,51.5,49.0,30.45,SSE,155,0.0,0.0,90,0.00,,,0.00,83,weatherlink.com 1.10,2013-02-28 15:18:00,
2013-02-28 07:33:00,52.5,49.0,30.45,SSE,155,0.0,1.0,89,0.00,,,0.00,130,weatherlink.com 1.10,2013-02-28 15:33:00,
2013-02-28 07:49:00,53.0,49.0,30.46,SSE,155,0.0,2.0,86,0.00,,,0.00,125,weatherlink.com 1.10,2013-02-28 15:49:00,
2013-02-28 08:04:00,53.4,50.0,30.46,East,93,2.0,5.0,87,0.00,,,0.00,237,weatherlink.com 1.10,2013-02-28 16:04:00,
2013-02-28 08:19:00,53.8,49.0,30.47,ENE,70,0.0,2.0,85,0.00,,,0.00,116,weatherlink.com 1.10,2013-02-28 16:19:00,
2013-02-28 08:34:00,53.6,50.0,30.47,East,87,0.0,3.0,86,0.00,,,0.00,320,weatherlink.com 1.10,2013-02-28 16:34:00,
2013-02-28 08:49:00,55.0,51.0,30.48,ESE,117,2.0,2.0,85,0.00,,,0.00,232,weatherlink.com 1.10,2013-02-28 16:49:00,
2013-02-28 09:04:00,56.0,51.0,30.49,East,91,0.0,4.0,82,0.00,,,0.00,371,weatherlink.com 1.10,2013-02-28 17:04:00,
2013-02-28 09:19:00,56.7,51.0,30.49,ESE,117,0.0,3.0,80,0.00,,,0.00,424,weatherlink.com 1.10,2013-02-28 17:19:00,
2013-02-28 09:34:00,58.4,51.0,30.49,SE,138,2.0,3.0,77,0.00,,,0.00,396,weatherlink.com 1.10,2013-02-28 17:34:00,
2013-02-28 09:49:00,60.0,51.0,30.49,SW,214,0.0,3.0,71,0.00,,,0.00,450,weatherlink.com 1.10,2013-02-28 17:49:00,
2013-02-28 10:04:00,61.3,51.0,30.49,East,94,1.0,5.0,70,0.00,,,0.00,524,weatherlink.com 1.10,2013-02-28 18:04:00,
2013-02-28 10:19:00,60.0,51.0,30.49,ENE,70,0.0,6.0,72,0.00,,,0.00,548,weatherlink.com 1.10,2013-02-28 18:19:00,
2013-02-28 10:34:00,60.1,51.0,30.49,East,89,4.0,6.0,72,0.00,,,0.00,582,weatherlink.com 1.10,2013-02-28 18:34:00,
2013-02-28 10:49:00,61.4,52.0,30.49,East,88,0.0,6.0,71,0.00,,,0.00,617,weatherlink.com 1.10,2013-02-28 18:49:00,
2013-02-28 11:04:00,61.8,52.0,30.48,ENE,64,3.0,4.0,70,0.00,,,0.00,636,weatherlink.com 1.10,2013-02-28 19:04:00,
2013-02-28 11:19:00,63.2,51.0,30.47,SE,129,1.0,4.0,65,0.00,,,0.00,656,weatherlink.com 1.10,2013-02-28 19:19:00,
2013-02-28 11:34:00,64.1,52.0,30.48,SE,132,2.0,4.0,66,0.00,,,0.00,671,weatherlink.com 1.10,2013-02-28 19:34:00,
2013-02-28 11:49:00,60.6,50.0,30.48,West,262,9.0,12.0,68,0.00,,,0.00,682,weatherlink.com 1.10,2013-02-28 19:49:00,
2013-02-28 12:04:00,58.5,51.0,30.48,WNW,300,2.0,11.0,76,0.00,,,0.00,696,weatherlink.com 1.10,2013-02-28 20:04:00,
2013-02-28 12:19:00,58.7,51.0,30.48,West,279,4.0,11.0,76,0.00,,,0.00,707,weatherlink.com 1.10,2013-02-28 20:19:00,
2013-02-28 12:35:00,58.7,51.0,30.47,NW,325,3.0,13.0,76,0.00,,,0.00,710,weatherlink.com 1.10,2013-02-28 20:35:00,
2013-02-28 12:50:00,60.4,52.0,30.47,SSW,203,6.0,10.0,73,0.00,,,0.00,726,weatherlink.com 1.10,2013-02-28 20:50:00,
2013-02-28 13:05:00,61.0,51.0,30.46,SW,218,4.0,10.0,70,0.00,,,0.00,744,weatherlink.com 1.10,2013-02-28 21:05:00,
2013-02-28 13:20:00,60.4,52.0,30.45,WSW,258,2.0,9.0,73,0.00,,,0.00,689,weatherlink.com 1.10,2013-02-28 21:20:00,
2013-02-28 13:35:00,60.8,51.0,30.44,WSW,251,3.0,8.0,71,0.00,,,0.00,684,weatherlink.com 1.10,2013-02-28 21:35:00,
2013-02-28 13:50:00,59.3,51.0,30.45,West,261,9.0,12.0,73,0.00,,,0.00,657,weatherlink.com 1.10,2013-02-28 21:50:00,
2013-02-28 14:05:00,57.8,51.0,30.45,WSW,252,7.0,12.0,77,0.00,,,0.00,603,weatherlink.com 1.10,2013-02-28 22:05:00,
2013-02-28 14:20:00,58.5,51.0,30.44,SSW,205,5.0,8.0,76,0.00,,,0.00,606,weatherlink.com 1.10,2013-02-28 22:20:00,
2013-02-28 14:35:00,59.5,51.0,30.44,WSW,241,5.0,11.0,74,0.00,,,0.00,571,weatherlink.com 1.10,2013-02-28 22:35:00,
2013-02-28 14:50:00,58.0,50.0,30.44,SSW,197,6.0,14.0,75,0.00,,,0.00,534,weatherlink.com 1.10,2013-02-28 22:50:00,
2013-02-28 15:05:00,57.2,50.0,30.44,SW,226,8.0,19.0,77,0.00,,,0.00,422,weatherlink.com 1.10,2013-02-28 23:05:00,
2013-02-28 15:20:00,57.8,51.0,30.44,West,281,6.0,14.0,77,0.00,,,0.00,485,weatherlink.com 1.10,2013-02-28 23:20:00,
2013-02-28 15:35:00,57.6,50.0,30.43,North,9,3.0,15.0,77,0.00,,,0.00,438,weatherlink.com 1.10,2013-02-28 23:35:00,
2013-02-28 15:50:00,58.5,51.0,30.43,West,263,2.0,12.0,76,0.00,,,0.00,390,weatherlink.com 1.10,2013-02-28 23:50:00,
2013-02-28 16:05:00,58.7,51.0,30.43,West,260,3.0,12.0,75,0.00,,,0.00,309,weatherlink.com 1.10,2013-03-01 00:05:00,
2013-02-28 16:20:00,58.1,51.0,30.42,SSW,213,4.0,9.0,76,0.00,,,0.00,221,weatherlink.com 1.10,2013-03-01 00:20:00,
2013-02-28 16:35:00,57.1,50.0,30.42,West,266,2.0,14.0,78,0.00,,,0.00,223,weatherlink.com 1.10,2013-03-01 00:35:00,
2013-02-28 16:50:00,56.3,50.0,30.43,WNW,297,5.0,14.0,79,0.00,,,0.00,183,weatherlink.com 1.10,2013-03-01 00:50:00,
2013-02-28 17:05:00,56.1,50.0,30.43,SW,218,0.0,6.0,81,0.00,,,0.00,128,weatherlink.com 1.10,2013-03-01 01:05:00,
2013-02-28 17:20:00,54.9,50.0,30.43,SW,220,3.0,10.0,82,0.00,,,0.00,77,weatherlink.com 1.10,2013-03-01 01:20:00,
2013-02-28 17:35:00,53.8,49.0,30.42,WSW,256,4.0,10.0,85,0.00,,,0.00,30,weatherlink.com 1.10,2013-03-01 01:35:00,
2013-02-28 17:50:00,53.6,50.0,30.43,North,352,1.0,8.0,86,0.00,,,0.00,12,weatherlink.com 1.10,2013-03-01 01:50:00,
2013-02-28 18:05:00,53.4,50.0,30.43,WSW,247,4.0,9.0,87,0.00,,,0.00,5,weatherlink.com 1.10,2013-03-01 02:05:00,
2013-02-28 18:20:00,52.8,49.0,30.43,West,271,1.0,8.0,88,0.00,,,0.00,0,weatherlink.com 1.10,2013-03-01 02:20:00,
2013-02-28 18:35:00,52.7,49.0,30.43,SW,231,3.0,7.0,88,0.00,,,0.00,0,weatherlink.com 1.10,2013-03-01 02:35:00,
2013-02-28 18:50:00,52.5,49.0,30.44,WSW,246,2.0,7.0,89,0.00,,,0.00,0,weatherlink.com 1.10,2013-03-01 02:50:00,
2013-02-28 19:05:00,52.4,49.0,30.44,West,266,4.0,10.0,89,0.00,,,0.00,0,weatherlink.com 1.10,2013-03-01 03:05:00,
2013-02-28 19:20:00,52.5,49.0,30.45,WSW,247,0.0,7.0,89,0.00,,,0.00,0,weatherlink.com 1.10,2013-03-01 03:20:00,
2013-02-28 19:35:00,52.4,49.0,30.45,WSW,253,3.0,8.0,89,0.00,,,0.00,0,weatherlink.com 1.10,2013-03-01 03:35:00,
2013-02-28 19:50:00,52.1,49.0,30.45,West,279,1.0,8.0,90,0.00,,,0.00,0,weatherlink.com 1.10,2013-03-01 03:50:00,
2013-02-28 20:05:00,51.9,49.0,30.46,West,280,5.0,9.0,90,0.00,,,0.00,0,weatherlink.com 1.10,2013-03-01 04:05:00,
2013-02-28 20:20:00,51.5,49.0,30.46,WSW,253,2.0,8.0,91,0.00,,,0.00,0,weatherlink.com 1.10,2013-03-01 04:20:00,
2013-02-28 20:35:00,51.4,49.0,30.46,WSW,248,0.0,7.0,91,0.00,,,0.00,0,weatherlink.com 1.10,2013-03-01 04:35:00,
2013-02-28 20:50:00,51.4,49.0,30.46,WNW,293,2.0,6.0,91,0.00,,,0.00,0,weatherlink.com 1.10,2013-03-01 04:50:00,
2013-02-28 21:05:00,51.3,49.0,30.46,WNW,301,0.0,6.0,91,0.00,,,0.00,0,weatherlink.com 1.10,2013-03-01 05:05:00,
2013-02-28 21:20:00,51.4,49.0,30.46,NW,312,1.0,5.0,91,0.00,,,0.00,0,weatherlink.com 1.10,2013-03-01 05:20:00,
2013-02-28 21:35:00,51.4,49.0,30.47,NNW,339,0.0,3.0,91,0.00,,,0.00,0,weatherlink.com 1.10,2013-03-01 05:35:00,
2013-02-28 21:50:00,51.3,49.0,30.47,NNW,339,0.0,2.0,91,0.00,,,0.00,0,weatherlink.com 1.10,2013-03-01 05:50:00,
2013-02-28 22:05:00,51.3,49.0,30.47,SW,220,0.0,2.0,91,0.00,,,0.00,0,weatherlink.com 1.10,2013-03-01 06:05:00,
2013-02-28 22:20:00,51.1,49.0,30.47,SW,220,0.0,0.0,91,0.00,,,0.00,0,weatherlink.com 1.10,2013-03-01 06:20:00,
2013-02-28 22:35:00,51.2,49.0,30.47,SW,220,0.0,1.0,91,0.00,,,0.00,0,weatherlink.com 1.10,2013-03-01 06:35:00,
2013-02-28 22:50:00,50.7,48.0,30.47,SW,220,2.0,3.0,91,0.00,,,0.00,0,weatherlink.com 1.10,2013-03-01 06:50:00,
2013-02-28 23:05:00,50.5,48.0,30.47,SW,220,0.0,2.0,91,0.00,,,0.00,0,weatherlink.com 1.10,2013-03-01 07:05:00,
2013-02-28 23:20:00,50.4,48.0,30.47,SW,220,0.0,0.0,91,0.00,,,0.00,0,weatherlink.com 1.10,2013-03-01 07:20:00,
2013-02-28 23:35:00,50.6,48.0,30.47,SW,220,0.0,1.0,91,0.00,,,0.00,0,weatherlink.com 1.10,2013-03-01 07:35:00,
2013-02-28 23:50:00,50.5,48.0,30.47,SW,220,0.0,0.0,91,0.00,,,0.00,0,weatherlink.com 1.10,2013-03-01 07:50:00,